EW6452 Weather Reports


time (UTC)temp
C
wind
direction
speed
KPH
gust
KPH
rain 1hr
cm
rain 24hr
cm
rain mn
cm
humidity
%
barometer
mb
20260509212553 31 0 1.6 6.4 0.00 0.03 0.03 55 1009.0
20260509212052 31 144 1.6 6.4 0.00 0.03 0.03 54 1008.9
20260509211603 31 128 1.6 9.7 0.00 0.03 0.03 56 1009.1
20260509211053 31 128 1.6 9.7 0.00 0.03 0.03 54 1009.2
20260509210553 31 86 1.6 6.4 0.00 0.03 0.03 54 1009.3
20260509210101 31 101 3.2 6.4 0.00 0.03 0.03 55 1009.4
20260509205552 31 155 1.6 6.4 0.00 0.03 0.03 56 1009.4
20260509205052 31 202 0.0 6.4 0.00 0.03 0.03 54 1009.5
20260509204554 31 202 0.0 3.2 0.00 0.03 0.03 56 1009.6
20260509204052 30 180 0.0 6.4 0.00 0.03 0.03 58 1009.6
20260509203552 30 180 0.0 9.7 0.00 0.03 0.03 59 1009.7
20260509203059 30 180 1.6 9.7 0.00 0.03 0.03 61 1009.7
20260509202555 29 199 3.2 9.7 0.00 0.03 0.03 59 1009.9
20260509202052 28 182 4.8 9.7 0.00 0.03 0.03 59 1009.9
20260509201555 28 185 4.8 12.9 0.00 0.03 0.03 58 1010.2
20260509201053 27 123 4.8 17.7 0.00 0.03 0.03 58 1010.3
20260509200551 26 188 4.8 20.9 0.00 0.03 0.03 56 1010.7
20260509195553 31 146 3.2 9.7 0.00 0.03 0.03 55 1010.8
20260509195052 31 34 1.6 6.4 0.00 0.03 0.03 56 1010.6
20260509194559 31 0 1.6 9.7 0.00 0.03 0.03 56 1010.7
20260509194052 31 294 0.0 9.7 0.00 0.03 0.03 59 1010.5
20260509193552 31 14 1.6 8.0 0.00 0.03 0.03 53 1010.6
20260509193100 31 74 1.6 12.9 0.00 0.03 0.03 52 1010.6
20260509192553 30 27 1.6 12.9 0.00 0.03 0.03 60 1010.4
20260509192052 30 307 1.6 9.7 0.00 0.03 0.03 58 1010.4
20260509191557 30 350 1.6 9.7 0.00 0.03 0.03 63 1010.4
20260509191056 30 315 3.2 8.0 0.00 0.03 0.03 61 1010.4
20260509190554 30 20 1.6 8.0 0.00 0.03 0.03 64 1010.5
20260509190058 29 5 1.6 8.0 0.00 0.03 0.03 62 1010.6
20260509185553 29 32 1.6 8.0 0.00 0.03 0.03 67 1010.7
20260509185051 29 324 1.6 17.7 0.00 0.03 0.03 68 1010.9
20260509184556 28 51 1.6 17.7 0.00 0.03 0.03 67 1010.9
20260509184052 28 17 6.4 17.7 0.00 0.03 0.03 70 1010.9
20260509183554 28 15 4.8 14.5 0.00 0.03 0.03 70 1011.1
20260509183136 28 30 3.2 9.7 0.00 0.03 0.03 71 1011.1
20260509182552 28 5 1.6 9.7 0.00 0.03 0.03 70 1011.2
20260509182052 28 42 3.2 9.7 0.00 0.03 0.03 70 1011.2
20260509181612 29 5 0.0 6.4 0.00 0.03 0.03 68 1011.2
20260509181052 30 0 0.0 6.4 0.00 0.03 0.03 65 1011.2
20260509180552 30 360 0.0 3.2 0.00 0.03 0.03 72 1011.4
20260509180100 28 360 0.0 3.2 0.00 0.03 0.03 71 1011.4
20260509175552 28 360 0.0 4.8 0.00 0.03 0.03 74 1011.3
20260509175052 29 0 0.0 4.8 0.00 0.03 0.03 73 1011.4
20260509174556 28 334 0.0 4.8 0.00 0.03 0.03 70 1011.3
20260509174052 28 97 0.0 3.2 0.00 0.03 0.03 71 1011.5
20260509173556 28 0 0.0 3.2 0.00 0.03 0.03 75 1011.5
20260509173104 29 317 0.0 3.2 0.00 0.03 0.03 77 1011.5
20260509172553 27 338 0.0 3.2 0.00 0.03 0.03 81 1011.5
20260509172051 27 227 0.0 3.2 0.00 0.03 0.03 77 1011.6
20260509171559 27 0 0.0 3.2 0.00 0.03 0.03 78 1011.7
20260509171052 27 9 0.0 3.2 0.00 0.03 0.03 77 1011.8
20260509170552 27 0 0.0 8.0 0.00 0.03 0.03 77 1011.9
20260509170058 27 44 0.0 8.0 0.00 0.03 0.03 77 1011.9
20260509165552 27 170 3.2 8.0 0.00 0.03 0.03 73 1012.0
20260509165052 28 176 1.6 4.8 0.00 0.03 0.03 72 1012.0
20260509164602 28 150 0.0 3.2 0.00 0.03 0.03 74 1011.8
20260509164052 28 150 0.0 6.4 0.00 0.03 0.03 75 1011.7
20260509163552 28 212 1.6 8.0 0.00 0.03 0.03 77 1011.8
20260509163101 27 244 1.6 8.0 0.00 0.03 0.03 76 1012.0
20260509162552 28 0 0.0 4.8 0.00 0.03 0.03 78 1012.1
20260509162051 27 218 0.0 14.5 0.00 0.03 0.03 77 1012.0
20260509161554 27 225 1.6 14.5 0.00 0.03 0.03 81 1012.1
20260509161051 27 209 4.8 11.3 0.00 0.03 0.03 80 1011.9
20260509160553 27 254 3.2 11.3 0.00 0.03 0.03 82 1011.9
20260509160058 26 227 1.6 8.0 0.00 0.03 0.03 82 1012.0
20260509155552 26 191 1.6 14.5 0.00 0.03 0.03 81 1012.0
20260509155052 26 229 1.6 14.5 0.00 0.03 0.03 81 1012.0
20260509154557 26 242 6.4 20.9 0.00 0.03 0.03 82 1011.8
20260509154052 26 171 6.4 20.9 0.00 0.03 0.03 83 1011.6
20260509153552 25 214 9.7 19.3 0.00 0.03 0.03 84 1011.5
20260509153053 25 162 11.3 19.3 0.00 0.03 0.03 83 1011.2
20260509152552 26 198 8.0 14.5 0.00 0.03 0.03 83 1011.2
20260509152052 26 211 4.8 14.5 0.00 0.03 0.03 83 1011.3
20260509151555 26 132 6.4 16.1 0.00 0.03 0.03 84 1011.4
20260509151053 26 173 6.4 16.1 0.00 0.03 0.03 83 1011.2
20260509150552 25 178 8.0 17.7 0.00 0.03 0.03 83 1011.1
20260509150051 26 152 9.7 17.7 0.00 0.03 0.03 82 1011.1
20260509145552 26 188 6.4 14.5 0.00 0.03 0.03 83 1011.1
20260509145052 26 207 6.4 14.5 0.00 0.03 0.03 83 1011.2
20260509144558 26 168 6.4 16.1 0.00 0.03 0.03 82 1011.0
20260509144052 26 201 8.0 16.1 0.00 0.03 0.03 82 1011.0
20260509143553 26 190 6.4 12.9 0.00 0.03 0.03 83 1010.9
20260509143058 26 196 6.4 12.9 0.00 0.03 0.03 84 1010.7
20260509142552 25 205 6.4 12.9 0.00 0.03 0.03 85 1010.7
20260509142052 25 178 3.2 9.7 0.00 0.03 0.03 86 1010.6
20260509141609 25 179 4.8 11.3 0.00 0.03 0.03 86 1010.6
20260509141052 25 183 1.6 11.3 0.00 0.03 0.03 87 1010.6
20260509140552 24 229 4.8 11.3 0.00 0.03 0.03 89 1010.6
20260509140105 24 207 3.2 9.7 0.00 0.03 0.03 91 1010.7
20260509135553 23 184 4.8 9.7 0.00 0.03 0.03 92 1010.6
20260509135051 23 196 4.8 9.7 0.00 0.03 0.03 93 1010.4
20260509134603 23 229 4.8 11.3 0.00 0.03 0.03 94 1010.4
20260509134052 23 360 3.2 11.3 0.00 0.03 0.03 94 1010.5
20260509133553 22 220 4.8 11.3 0.00 0.03 0.03 95 1010.6
20260509133110 22 227 4.8 12.9 0.00 0.03 0.03 95 1010.7
20260509132553 22 184 4.8 14.5 0.00 0.03 0.03 95 1010.8
20260509132057 22 159 6.4 14.5 0.00 0.03 0.03 95 1010.7
20260509131604 22 197 6.4 12.9 0.00 0.03 0.03 95 1010.5
20260509131052 22 186 6.4 12.9 0.00 0.03 0.03 95 1010.8
20260509130554 22 203 4.8 9.7 0.00 0.03 0.03 95 1010.9
20260509130059 22 187 4.8 9.7 0.00 0.03 0.03 95 1010.8
20260509125552 22 215 3.2 6.4 0.00 0.03 0.03 95 1010.9
20260509125053 21 171 1.6 3.2 0.00 0.03 0.03 95 1010.9
20260509124607 21 123 0.0 3.2 0.00 0.03 0.03 95 1011.0
20260509124052 21 115 0.0 3.2 0.00 0.03 0.03 95 1010.9
20260509123554 21 114 0.0 3.2 0.00 0.03 0.03 95 1011.0
20260509123111 21 0 0.0 3.2 0.00 0.03 0.03 95 1011.0
20260509122553 21 0 0.0 3.2 0.00 0.03 0.03 95 1011.0
20260509122053 21 0 0.0 3.2 0.00 0.03 0.03 95 1010.9
20260509121555 21 0 0.0 3.2 0.00 0.03 0.03 95 1010.9
20260509121055 21 0 0.0 1.6 0.00 0.03 0.03 95 1010.9
20260509120553 21 0 0.0 0.0 0.00 0.03 0.03 95 1011.1
20260509120056 21 0 0.0 0.0 0.00 0.03 0.03 95 1011.0
20260509115552 21 0 0.0 1.6 0.00 0.03 0.03 95 1011.2
20260509115052 21 0 0.0 1.6 0.00 0.03 0.03 95 1011.2
20260509114557 21 0 0.0 0.0 0.00 0.03 0.03 95 1011.4
20260509114053 21 0 0.0 0.0 0.00 0.03 0.03 95 1011.5
20260509113553 21 0 0.0 0.0 0.00 0.03 0.03 95 1011.6
20260509113058 21 0 0.0 3.2 0.03 0.03 0.03 95 1011.6
20260509112555 21 0 0.0 3.2 0.03 0.03 0.03 95 1011.8
20260509112053 21 0 0.0 3.2 0.03 0.03 0.03 95 1012.1
20260509111559 21 0 0.0 3.2 0.03 0.03 0.03 95 1012.4
20260509111052 21 0 0.0 3.2 0.03 0.03 0.03 95 1012.5
20260509110553 21 0 0.0 3.2 0.03 0.03 0.03 95 1012.5
20260509110054 21 0 0.0 3.2 0.03 0.03 0.03 95 1012.4
20260509105554 21 0 0.0 3.2 0.03 0.03 0.03 95 1012.5
20260509105053 21 0 0.0 0.0 0.03 0.03 0.03 95 1012.5
20260509104556 21 0 0.0 0.0 0.03 0.03 0.03 94 1012.4
20260509104052 21 0 0.0 3.2 0.03 0.03 0.03 94 1012.2
20260509103551 21 0 0.0 3.2 0.03 0.03 0.03 94 1012.4
20260509103102 21 0 0.0 3.2 0.00 0.00 0.00 94 1012.6
20260509102553 21 0 0.0 3.2 0.00 0.00 0.00 94 1012.4
20260509102053 21 0 0.0 3.2 0.00 0.00 0.00 94 1012.4
20260509101559 21 172 0.0 3.2 0.00 0.00 0.00 94 1012.3
20260509101052 21 0 0.0 3.2 0.00 0.00 0.00 94 1012.2
20260509100552 21 0 0.0 3.2 0.00 0.00 0.00 94 1012.1
20260509100056 21 0 0.0 3.2 0.00 0.00 0.00 94 1011.8
20260509095553 21 0 0.0 3.2 0.00 0.00 0.00 94 1011.8
20260509095053 21 0 0.0 3.2 0.00 0.00 0.00 94 1011.7
20260509094555 21 0 0.0 3.2 0.00 0.00 0.00 94 1011.4
20260509094052 21 0 0.0 0.0 0.00 0.00 0.00 94 1011.3
20260509093553 21 0 0.0 3.2 0.00 0.00 0.00 94 1011.1
20260509093059 21 0 0.0 3.2 0.00 0.00 0.00 94 1010.8
20260509092552 21 0 0.0 3.2 0.00 0.00 0.00 94 1010.8
20260509092053 21 0 0.0 3.2 0.00 0.00 0.00 94 1010.8
20260509091555 21 0 0.0 1.6 0.00 0.00 0.00 94 1010.7
20260509091054 21 0 0.0 3.2 0.00 0.00 0.00 94 1010.6
20260509090554 21 0 0.0 3.2 0.00 0.00 0.00 94 1010.6
20260509090056 21 0 0.0 3.2 0.00 0.00 0.00 94 1010.7
20260509085552 21 0 0.0 3.2 0.00 0.00 0.00 94 1010.7
20260509085052 21 172 0.0 3.2 0.00 0.00 0.00 94 1010.8
20260509084557 21 0 0.0 3.2 0.00 0.00 0.00 94 1010.8
20260509084053 21 172 0.0 3.2 0.00 0.00 0.00 94 1011.2
20260509083553 21 0 0.0 3.2 0.00 0.00 0.00 94 1011.3
20260509083105 21 0 0.0 3.2 0.00 0.00 0.00 94 1011.4
20260509082552 21 0 0.0 0.0 0.00 0.00 0.00 94 1011.5
20260509082052 21 0 0.0 0.0 0.00 0.00 0.00 94 1011.3
20260509081555 21 0 0.0 1.6 0.00 0.00 0.00 94 1011.2
20260509081052 21 0 0.0 3.2 0.00 0.00 0.00 94 1011.0
20260509080552 21 0 0.0 3.2 0.00 0.00 0.00 93 1011.1
20260509080100 21 172 0.0 3.2 0.00 0.00 0.00 93 1011.3
20260509075553 21 0 0.0 3.2 0.00 0.00 0.00 93 1011.5
20260509075053 21 172 0.0 3.2 0.00 0.00 0.00 93 1011.4
20260509074556 21 0 0.0 3.2 0.00 0.00 0.00 93 1011.4
20260509074054 21 172 0.0 3.2 0.00 0.00 0.00 93 1011.5
20260509073552 21 0 0.0 3.2 0.00 0.00 0.00 93 1011.6
20260509073106 21 0 0.0 3.2 0.00 0.00 0.00 93 1011.7
20260509072555 21 0 0.0 3.2 0.00 0.00 0.00 93 1011.6
20260509072052 22 0 0.0 3.2 0.00 0.00 0.00 93 1011.6
20260509071557 22 0 0.0 3.2 0.00 0.00 0.00 93 1011.8
20260509071052 22 0 0.0 3.2 0.00 0.00 0.00 92 1011.8
20260509070552 22 0 0.0 3.2 0.00 0.00 0.00 92 1011.9
20260509070057 22 0 0.0 3.2 0.00 0.00 0.00 92 1011.9
20260509065552 22 0 0.0 3.2 0.00 0.00 0.00 92 1011.6
20260509065053 22 0 0.0 3.2 0.00 0.00 0.00 92 1011.5
20260509064607 22 172 0.0 3.2 0.00 0.00 0.00 92 1011.6
20260509064056 22 172 0.0 4.8 0.00 0.00 0.00 92 1011.5
20260509063552 22 172 0.0 4.8 0.00 0.00 0.00 91 1011.8
20260509063057 22 172 1.6 4.8 0.00 0.00 0.00 91 1011.7
20260509062553 22 0 1.6 4.8 0.00 0.00 0.00 91 1011.7
20260509062052 22 202 1.6 6.4 0.00 0.00 0.00 91 1011.4
20260509061554 22 202 1.6 6.4 0.00 0.00 0.00 91 1011.4
20260509061052 22 195 0.0 6.4 0.00 0.00 0.00 91 1011.3
20260509060552 22 196 1.6 6.4 0.00 0.00 0.00 90 1011.3
20260509055553 22 0 3.2 14.5 0.00 0.00 0.00 90 1011.4
20260509055056 22 200 4.8 14.5 0.00 0.00 0.00 90 1011.3
20260509054555 22 199 4.8 14.5 0.00 0.00 0.00 89 1011.3
20260509054054 22 111 3.2 11.3 0.00 0.00 0.00 89 1010.9
20260509053552 22 184 4.8 9.7 0.00 0.00 0.00 89 1010.6
20260509053104 22 123 1.6 8.0 0.00 0.00 0.00 89 1010.6
20260509052552 22 186 1.6 8.0 0.00 0.00 0.00 89 1010.2
20260509052052 22 186 3.2 8.0 0.00 0.00 0.00 89 1010.3
20260509051602 22 186 1.6 6.4 0.00 0.00 0.00 89 1010.3
20260509051053 22 124 1.6 6.4 0.00 0.00 0.00 89 1010.2
20260509050555 22 0 1.6 6.4 0.00 0.00 0.00 89 1010.0
20260509050105 22 192 1.6 4.8 0.00 0.00 0.00 89 1010.0
20260509045552 22 192 1.6 6.4 0.00 0.00 0.00 89 1010.1
20260509045052 22 192 1.6 6.4 0.00 0.00 0.00 89 1010.4
20260509044557 22 192 1.6 4.8 0.00 0.00 0.00 89 1010.3
20260509044053 22 360 1.6 8.0 0.00 0.00 0.00 89 1010.5
20260509043553 22 0 1.6 8.0 0.00 0.00 0.00 89 1010.6
20260509043055 22 360 1.6 8.0 0.00 0.00 0.00 89 1010.5
20260509042553 22 0 0.0 3.2 0.00 0.00 0.00 89 1010.7
20260509042052 22 0 0.0 4.8 0.00 0.00 0.00 89 1010.6
20260509041555 22 148 1.6 4.8 0.00 0.00 0.00 89 1010.6
20260509041053 22 148 0.0 3.2 0.00 0.00 0.00 89 1010.8
20260509040555 22 149 0.0 3.2 0.00 0.00 0.00 89 1010.8
20260509040100 22 0 0.0 3.2 0.00 0.00 0.00 89 1010.8
20260509035553 22 0 0.0 1.6 0.00 0.00 0.00 89 1010.8
20260509035057 22 0 0.0 0.0 0.00 0.00 0.00 89 1010.8
20260509034555 22 0 0.0 0.0 0.00 0.00 0.00 90 1010.7
20260509034052 22 0 0.0 0.0 0.00 0.00 0.00 90 1010.6
20260509033552 21 0 0.0 1.6 0.00 0.00 0.00 90 1010.6
20260509033101 21 0 0.0 3.2 0.00 0.00 0.00 90 1010.4
20260509032552 21 0 0.0 3.2 0.00 0.00 0.00 90 1010.2
20260509032053 21 0 0.0 3.2 0.00 0.00 0.00 89 1010.2
20260509031556 22 0 0.0 3.2 0.00 0.00 0.00 89 1010.3
20260509031053 22 0 0.0 4.8 0.00 0.00 0.00 89 1010.2
20260509030555 22 360 0.0 4.8 0.00 0.00 0.00 88 1010.1
20260509030054 22 360 0.0 3.2 0.00 0.00 0.00 88 1010.0
20260509025552 22 360 1.6 3.2 0.00 0.00 0.00 88 1010.1
20260509025058 22 0 0.0 3.2 0.00 0.00 0.00 88 1010.2
20260509024555 22 360 0.0 3.2 0.00 0.00 0.00 87 1010.2
20260509024053 22 0 0.0 3.2 0.00 0.00 0.00 87 1010.1
20260509023552 22 0 0.0 3.2 0.00 0.00 0.00 87 1010.1
20260509023104 22 0 0.0 3.2 0.00 0.00 0.00 87 1010.0
20260509022556 22 0 0.0 3.2 0.00 0.00 0.00 87 1009.9
20260509022053 22 0 0.0 3.2 0.00 0.00 0.00 86 1009.9
20260509021555 22 0 0.0 3.2 0.00 0.00 0.00 86 1009.8
20260509021055 22 0 0.0 3.2 0.00 0.00 0.00 85 1009.7
20260509020552 23 0 0.0 3.2 0.00 0.00 0.00 85 1009.7
20260509020055 23 0 1.6 3.2 0.00 0.00 0.00 85 1009.6
20260509015552 23 148 1.6 6.4 0.00 0.00 0.00 84 1009.5
20260509015053 23 0 0.0 6.4 0.00 0.00 0.00 84 1009.6
20260509014552 23 117 0.0 6.4 0.00 0.00 0.00 84 1009.6
20260509014052 23 199 1.6 6.4 0.00 0.00 0.00 83 1009.5
20260509013553 23 124 0.0 6.4 0.00 0.00 0.00 83 1009.5
20260509013109 23 155 0.0 4.8 0.00 0.00 0.00 83 1009.3
20260509012552 24 177 1.6 6.4 0.00 0.00 0.00 82 1009.4
20260509012052 24 122 1.6 6.4 0.00 0.00 0.00 82 1009.5
20260509011556 24 119 1.6 8.0 0.00 0.00 0.00 82 1009.4
20260509011053 24 138 3.2 8.0 0.00 0.00 0.00 81 1009.5
20260509010556 24 138 1.6 6.4 0.00 0.00 0.00 81 1009.5
20260509005553 24 122 1.6 6.4 0.00 0.00 0.00 80 1009.4
20260509005053 24 130 1.6 6.4 0.00 0.00 0.00 81 1009.5
20260509004611 24 0 0.0 4.8 0.00 0.00 0.00 80 1009.3
20260509004052 25 117 0.0 6.4 0.00 0.00 0.00 80 1009.3
20260509003552 25 117 1.6 6.4 0.00 0.00 0.00 79 1009.3
20260509003055 25 107 0.0 9.7 0.00 0.00 0.00 79 1009.3
20260509002552 25 130 1.6 9.7 0.00 0.00 0.00 79 1009.4
20260509002052 25 181 1.6 8.0 0.00 0.00 0.00 79 1009.4
20260509001553 25 123 1.6 8.0 0.00 0.00 0.00 79 1009.5
20260509001052 25 126 1.6 6.4 0.00 0.00 0.00 78 1009.5
20260509000555 25 130 1.6 4.8 0.00 0.00 0.00 78 1009.6
20260509000109 25 0 1.6 8.0 0.00 0.00 0.00 78 1009.5
20260508235553 25 117 1.6 8.0 0.00 0.00 0.00 78 1009.5
20260508235053 25 128 1.6 6.4 0.00 0.00 0.00 77 1009.4
20260508234555 25 163 0.0 6.4 0.00 0.00 0.00 77 1009.4
20260508234052 25 0 0.0 6.4 0.00 0.00 0.00 77 1009.5
20260508233553 25 113 1.6 6.4 0.00 0.00 0.00 77 1009.4
20260508233125 25 118 0.0 9.7 0.00 0.00 0.00 78 1009.4
20260508232552 25 78 1.6 9.7 0.00 0.00 0.00 77 1009.3
20260508232052 25 207 1.6 9.7 0.00 0.00 0.00 77 1009.3
20260508231559 25 125 1.6 6.4 0.00 0.00 0.00 77 1009.4
20260508231053 25 119 1.6 4.8 0.00 0.00 0.00 77 1009.4
20260508230552 25 0 0.0 8.0 0.00 0.00 0.00 78 1009.4
20260508230059 25 0 1.6 8.0 0.00 0.00 0.00 77 1009.3
20260508225552 25 175 1.6 8.0 0.00 0.00 0.00 77 1009.3
20260508225049 25 130 1.6 9.7 0.00 0.00 0.00 77 1009.3
20260508224615 25 165 1.6 12.9 0.00 0.00 0.00 76 1009.4
20260508224053 25 111 3.2 12.9 0.00 0.00 0.00 76 1009.4
20260508223552 26 83 1.6 8.0 0.00 0.00 0.00 76 1009.3
20260508223054 25 89 3.2 8.0 0.00 0.00 0.00 76 1009.3
20260508222552 25 135 3.2 11.3 0.00 0.00 0.00 76 1009.3
20260508222052 25 0 3.2 11.3 0.00 0.00 0.00 76 1009.4
20260508221555 26 161 1.6 6.4 0.00 0.00 0.00 74 1009.5
20260508221049 26 142 1.6 11.3 0.00 0.00 0.00 75 1009.5
20260508220555 26 0 3.2 11.3 0.00 0.00 0.00 75 1009.5
20260508220050 26 86 3.2 11.3 0.00 0.00 0.00 74 1009.5
20260508215552 26 51 3.2 6.4 0.00 0.00 0.00 74 1009.4
20260508215052 26 113 3.2 8.0 0.00 0.00 0.00 74 1009.6
20260508214555 26 128 1.6 9.7 0.00 0.00 0.00 72 1009.5
20260508214052 26 95 1.6 11.3 0.00 0.00 0.00 72 1009.6
20260508213552 26 200 1.6 11.3 0.00 0.00 0.00 73 1009.8